Temperature
18 18 18 18 18 18 18 17 17 17 17 17 17 17 17 17 17 17 17 17 17 17 17 17 17 17 17 17 17 17 16 16 16 16 16 16 16 16 16 16 16 16 16
18 18 18 18 18 18 17 17 17 17 17 17 17 17 17 17 17 17 17 17 17 17 17 17 17 17 17 17 17 17 16 16 16 16 16 16 16 16 16 16 16 16 16
18 18 18 18 18 18 17 17 17 17 17 17 17 17 17 17 17 17 17 17 17 17 17 17 17 17 17 17 17 17 17 17 16 16 16 16 16 16 16 16 16 16 16
18 18 18 18 18 17 17 17 17 17 17 17 17 17 17 17 17 17 17 17 17 17 17 17 17 17 17 17 17 17 17 17 17 16 16 16 16 16 16 16 16 16 16
18 18 18 18 17 17 17 18 17 17 18 17 17 17 17 17 17 17 17 17 17 17 17 17 17 17 17 17 17 17 17 17 17 16 16 16 16 16 16 16 16 16 16
18 18 18 18 17 17 18 17 17 17 17 17 17 17 17 17 18 18 17 17 17 17 17 17 17 17 17 17 17 17 17 17 17 17 16 16 16 16 16 16 16 16 16
18 18 18 18 18 17 17 18 17 17 17 17 17 17 17 18 18 18 18 17 17 17 17 17 17 17 17 17 17 16 16 16 17 17 16 16 16 16 16 16 16 16 16
18 18 18 18 18 18 18 18 18 17 17 17 17 17 17 17 18 18 18 18 18 17 17 17 17 17 17 17 17 17 16 16 16 16 16 16 16 16 16 16 16 16 16
18 18 18 18 18 18 18 18 18 17 17 17 17 17 17 17 17 17 18 18 18 17 17 17 17 17 17 17 17 17 16 16 16 16 16 16 16 16 16 16 16 16 15
18 18 18 18 18 18 18 18 18 17 17 17 17 17 17 17 17 17 17 17 17 17 17 17 17 17 17 17 17 17 17 16 16 16 16 16 16 16 16 16 16 15 15
18 18 18 18 18 18 18 18 17 17 17 17 17 17 17 17 16 16 16 17 17 17 17 17 17 17 17 17 17 17 16 16 16 16 16 16 16 15 15 15 15 15 15
18 18 18 18 18 18 18 17 17 17 17 17 17 17 17 17 17 17 16 16 16 17 17 17 17 16 16 16 16 16 16 16 16 16 16 16 16 15 15 15 15 15 15
18 18 18 18 18 17 17 17 17 17 17 17 17 17 16 16 16 16 16 16 16 16 16 16 16 16 16 16 16 16 16 16 16 16 16 16 15 15 15 15 15 15 15
18 18 17 17 17 17 17 17 17 17 17 17 16 16 16 16 16 16 16 16 16 15 15 16 16 16 16 16 16 15 15 15 15 15 15 15 15 15 15 15 15 14 14
18 17 17 17 17 17 17 17 17 17 16 16 16 16 16 16 16 16 16 16 16 15 15 15 15 15 15 15 15 15 15 15 15 15 15 15 15 15 15 14 14 14 14
17 17 17 17 17 17 17 17 17 16 16 16 16 16 16 16 16 16 16 16 16 15 15 15 15 15 15 15 15 15 15 14 14 14 14 14 14 14 14 14 14 14 14
17 17 17 16 16 16 16 16 16 16 16 16 16 16 15 15 16 15 15 15 15 15 15 15 14 14 14 14 14 14 14 14 14 13 13 13 13 13 13 13 13 13 13
16 16 16 16 16 16 16 16 16 16 16 16 15 15 15 15 15 15 15 15 15 15 15 14 14 14 14 14 14 14 13 13 13 13 13 13 13 13 13 12 12 12 12
16 16 16 16 16 15 15 15 15 15 15 15 15 15 15 15 15 15 15 15 14 14 14 14 14 13 13 13 13 13 13 13 12 12 12 12 12 12 12 12 12 12 11
16 16 16 15 15 15 15 15 15 15 15 15 15 15 14 14 14 14 14 14 14 14 14 13 13 13 13 13 13 12 12 12 12 11 11 11 11 11 11 11 11 11 11
16 15 15 15 15 15 15 15 15 15 15 15 14 14 14 14 14 14 14 14 14 13 13 13 13 12 12 12 12 12 11 11 11 11 11 11 10 10 10 10 10 10 10
15 15 15 15 15 14 14 14 14 14 14 14 14 14 14 13 13 13 13 13 13 13 13 13 12 12 12 11 11 11 11 11 11 10 10 10 10 10 10 9 9 9 9
15 15 14 14 14 14 14 14 14 14 14 13 13 13 13 13 13 13 13 13 12 12 12 12 12 11 11 11 11 11 11 11 10 10 10 10 9 9 9 9 9 9 8
14 14 14 14 14 13 13 13 13 13 13 13 13 12 12 12 12 12 12 12 12 12 11 11 11 11 11 10 10 10 10 10 10 9 9 9 9 9 9 8 8 8 8
14 14 13 13 13 13 13 13 13 13 13 12 12 12 12 11 11 11 12 12 11 11 11 11 10 10 10 10 10 10 10 10 9 9 9 9 8 8 8 8 8 8 8
14 13 13 13 13 13 12 12 12 12 12 12 12 11 11 11 11 11 11 11 11 10 10 10 10 10 9 9 9 9 9 9 9 8 8 8 8 8 7 7 7 7 7
Wind_Speed
2 1 1 1 1 1 0 1 1 2 2 1 0 2 3 4 5 6 7 9 10 10 10 11 11 11 10 10 10 10 10 9 9 10 10 10 9 9 9 8 9 9 8
3 2 1 1 2 2 2 1 1 1 1 1 1 1 2 4 5 6 7 8 10 10 11 11 11 11 11 11 11 11 11 10 10 10 11 11 11 11 11 10 9 10 10
5 3 2 2 3 3 3 2 1 0 1 1 1 1 2 3 4 5 6 7 7 10 11 12 12 12 12 12 12 12 12 12 12 12 12 12 12 12 12 12 11 11 11
7 4 3 3 4 3 2 2 1 1 1 1 1 2 2 3 4 5 6 6 7 8 10 12 13 13 13 13 13 13 14 13 13 13 13 13 13 13 13 13 13 13 13
8 7 5 4 4 3 2 2 1 1 2 2 2 2 2 3 4 5 6 7 8 8 9 10 13 14 14 14 14 15 15 15 15 15 15 14 14 14 14 14 14 13 13
8 7 5 4 4 2 2 2 2 2 2 2 2 2 2 3 3 4 6 7 7 8 9 10 10 12 14 15 15 15 16 16 16 16 15 15 15 15 14 14 15 15 15
7 7 4 3 3 3 3 3 2 2 2 1 1 1 2 2 4 4 5 5 6 7 8 9 9 9 9 12 14 15 15 15 16 16 17 17 16 16 16 16 16 16 16
6 6 5 4 4 3 3 3 3 2 1 2 2 1 2 3 2 3 3 4 5 6 7 8 8 9 9 9 11 14 16 16 15 16 16 16 17 17 17 17 17 17 17
6 6 5 5 4 4 4 4 4 4 3 2 3 3 2 3 2 2 1 2 3 4 5 6 7 9 10 9 9 11 14 15 16 16 16 17 17 18 18 18 17 17 17
4 5 5 5 4 4 4 4 4 4 4 3 3 3 3 3 2 2 1 1 1 2 3 4 5 7 8 8 9 10 11 12 14 16 16 17 17 18 18 18 18 18 18
2 3 4 3 3 3 4 4 3 4 4 4 3 2 3 2 3 3 3 2 1 1 1 2 3 4 5 7 7 8 10 10 12 13 13 14 14 16 17 18 18 19 18
1 2 2 2 3 3 3 3 3 4 4 4 3 3 3 3 3 4 5 3 2 2 1 1 1 2 2 3 5 6 7 8 9 10 11 11 12 14 15 15 16 16 17
1 2 1 1 2 2 2 3 2 3 3 3 4 4 3 4 3 3 4 3 2 1 1 1 1 1 2 1 2 3 4 4 5 6 7 8 9 10 11 12 13 13 13
1 1 1 1 1 1 2 2 2 2 2 2 3 2 2 3 2 3 3 3 2 1 1 2 1 1 1 1 1 1 1 1 2 2 3 5 5 5 6 6 6 7 7
0 1 1 1 1 1 0 1 1 1 1 1 1 1 1 1 2 2 2 3 3 2 2 1 1 1 1 1 2 1 2 3 2 2 1 1 1 1 0 1 1 1 2
1 2 2 2 2 2 1 1 0 0 0 0 0 0 0 1 1 1 1 1 2 3 2 1 0 1 2 2 4 4 5 6 7 6 6 6 5 5 4 4 3 3 3
2 3 2 3 3 2 2 2 1 1 1 1 0 0 0 0 0 0 0 1 1 2 2 0 1 2 2 3 4 5 6 7 8 10 9 9 8 8 7 6 6 5 4
2 2 3 3 3 3 3 3 2 2 1 1 1 1 1 1 1 1 1 1 1 1 2 1 1 2 2 3 4 4 5 6 7 11 12 12 12 12 11 10 8 8 7
3 3 4 4 4 3 3 3 3 3 2 2 2 1 1 1 1 1 2 2 1 2 2 2 1 1 1 2 3 4 6 5 7 9 11 12 13 13 12 11 10 9 8
4 4 4 4 4 4 4 4 4 4 4 4 4 3 3 2 2 2 2 3 3 4 3 3 2 2 2 2 3 3 4 4 4 6 8 9 10 11 12 11 10 9 9
4 3 4 5 5 4 4 4 4 5 5 6 6 6 6 7 7 5 4 4 4 4 4 3 3 2 2 2 1 1 2 3 4 4 4 5 6 7 8 9 9 10 10
4 4 5 5 6 5 7 8 7 6 6 6 5 5 6 7 8 10 10 9 7 5 4 3 2 2 1 1 1 2 2 2 2 3 2 3 4 4 5 6 9 9 9
5 6 6 6 7 7 9 10 10 7 7 6 6 5 5 7 7 7 9 11 11 10 7 4 4 2 1 1 2 2 2 2 2 1 1 2 3 3 5 6 8 8 8
5 5 6 6 6 7 9 10 10 9 8 8 7 6 6 7 7 6 8 8 8 8 7 6 5 4 4 3 2 2 3 3 3 3 2 2 2 2 4 5 7 7 7
6 6 6 6 7 7 9 9 9 7 7 8 8 8 8 7 9 8 8 8 8 7 10 13 12 11 11 10 6 4 4 4 3 2 3 2 2 2 2 3 6 8 7
6 6 7 6 7 7 9 10 8 6 7 7 7 8 11 10 10 9 7 6 7 5 6 7 8 9 9 10 10 5 3 3 2 1 2 1 1 1 1 2 3 5 5
Wind_Direction
182 177 198 234 269 252 238 20 27 8 7 11 198 179 192 199 204 207 210 209 209 208 207 206 202 200 200 201 202 202 201 202 203 202 204 202 198 197 198 198 199 199 198
198 192 214 239 247 238 245 260 282 336 334 337 300 234 216 213 212 213 215 217 218 217 217 216 214 213 211 212 212 210 210 210 210 211 211 211 208 208 209 209 208 208 207
205 198 206 234 242 238 236 247 272 328 300 295 268 249 217 222 221 220 217 219 225 228 227 224 221 220 220 219 219 219 219 219 219 219 217 217 217 216 216 217 216 216 215
208 197 211 229 239 227 215 222 227 242 272 256 243 248 227 224 226 225 220 220 223 228 231 230 228 227 228 228 228 228 227 225 225 224 223 223 223 224 223 222 221 220 219
206 199 212 226 225 213 212 227 204 202 231 239 246 250 244 235 230 225 222 224 225 228 233 235 234 232 232 234 234 233 232 230 230 230 229 228 227 227 226 224 224 224 223
206 202 211 218 207 198 216 216 214 209 218 228 254 268 257 241 231 225 226 228 229 231 234 238 239 240 239 238 238 237 237 234 231 230 230 230 229 228 228 227 228 229 229
205 200 207 204 197 204 215 211 200 213 228 187 166 306 302 263 244 238 229 226 230 228 230 235 237 240 245 243 242 240 239 238 235 231 231 231 232 232 231 231 232 232 234
212 208 200 204 205 208 218 213 194 189 222 181 166 160 318 328 304 253 228 224 230 226 230 232 232 238 241 244 246 243 241 241 239 236 233 232 232 233 233 234 234 234 235
224 221 209 207 209 203 214 216 203 198 214 215 194 175 188 243 304 327 270 233 226 225 234 237 237 239 240 242 248 250 244 243 242 241 239 236 234 234 235 236 236 235 235
230 229 221 211 210 210 218 223 211 207 199 219 218 216 213 198 211 297 328 295 241 236 236 240 242 238 237 238 242 248 250 250 248 247 245 241 237 236 236 238 239 238 237
252 246 233 222 221 222 224 222 212 209 207 212 212 208 216 222 219 227 267 295 332 285 254 241 246 247 242 237 244 252 250 251 251 250 249 248 246 243 239 238 240 240 238
300 292 258 236 234 231 225 218 213 210 216 219 223 216 203 207 210 213 237 253 269 282 293 269 259 266 262 250 247 253 252 251 250 251 251 253 254 252 247 244 244 244 243
286 291 283 263 248 240 227 214 208 222 223 224 233 230 220 228 214 207 217 237 245 270 290 319 288 288 286 287 280 265 267 268 260 257 258 258 259 260 257 253 250 247 246
258 295 301 288 275 256 235 203 212 234 229 235 255 235 223 238 222 213 207 201 229 262 286 287 343 342 308 314 320 310 342 324 300 282 269 264 265 267 271 269 260 251 248
300 6 357 336 328 310 216 186 217 239 220 223 249 236 233 258 240 235 222 207 203 230 273 293 307 353 356 38 17 54 58 41 31 16 5 342 327 322 40 42 346 300 273
35 30 23 19 7 10 32 145 181 228 178 223 180 141 263 274 254 242 221 224 208 204 226 273 296 348 22 54 50 67 65 56 53 53 55 56 58 61 62 64 65 55 38
51 48 45 44 31 22 33 65 64 61 90 55 55 96 305 323 33 335 143 142 168 173 188 293 33 20 36 44 43 57 62 59 54 53 54 53 52 52 51 52 52 48 43
60 53 52 55 46 34 30 46 47 37 48 40 25 44 357 357 28 29 102 112 121 143 164 162 31 29 39 46 57 61 59 61 62 55 54 53 53 52 52 50 50 52 51
72 61 59 54 46 38 38 41 47 46 44 42 45 47 12 40 39 46 82 87 87 92 107 122 65 39 50 49 58 59 56 49 56 51 52 51 51 51 51 50 49 48 48
81 68 62 54 48 46 48 51 53 52 52 51 51 54 47 52 51 60 75 75 87 90 93 99 87 61 56 42 57 56 55 48 47 44 48 51 49 49 47 45 45 44 47
80 76 72 58 47 47 49 55 56 62 62 60 55 54 58 66 71 75 83 81 92 95 94 93 85 67 58 67 59 51 77 66 56 35 37 42 43 44 39 39 44 48 52
77 77 71 67 58 55 54 62 68 64 62 62 59 56 60 60 66 72 75 75 81 96 103 99 88 85 64 66 73 82 83 73 50 18 34 35 37 37 33 40 44 51 56
81 76 71 71 66 57 62 66 68 70 65 61 58 56 63 59 62 69 68 64 60 61 73 96 91 68 58 42 84 82 78 79 79 32 40 44 31 31 23 30 37 48 50
83 80 73 72 70 62 63 66 68 67 64 57 56 60 64 56 58 71 77 71 63 54 56 66 73 60 57 59 82 97 98 89 76 50 35 49 26 19 15 22 29 36 43
88 80 75 73 73 61 58 63 70 72 67 58 54 56 63 63 55 67 78 77 68 55 60 67 70 68 66 65 72 83 79 84 67 40 24 37 22 15 15 23 24 30 36
97 91 77 69 73 66 59 63 68 78 73 64 56 53 55 62 59 63 75 79 75 58 61 60 54 53 57 57 56 60 83 85 75 46 15 26 16 16 18 6 5 15 26
Height
1569 1570 1571 1571 1572 1573 1574 1575 1575 1576 1576 1577 1577 1577 1578 1578 1578 1579 1579 1579 1580 1580 1580 1581 1581 1582 1583 1584 1584 1585 1586 1587 1587 1588 1589 1590 1591 1591 1592 1593 1594 1594 1595
1570 1571 1571 1572 1573 1574 1575 1575 1576 1576 1577 1577 1577 1578 1578 1578 1578 1579 1579 1579 1580 1580 1580 1581 1581 1581 1582 1583 1584 1584 1585 1586 1586 1587 1588 1589 1590 1590 1591 1592 1593 1593 1594
1571 1571 1572 1572 1573 1574 1575 1575 1576 1576 1576 1577 1577 1577 1578 1578 1578 1578 1578 1579 1579 1579 1580 1580 1580 1581 1581 1582 1582 1583 1584 1584 1585 1586 1586 1587 1588 1589 1590 1590 1591 1592 1592
1571 1571 1572 1572 1573 1574 1574 1575 1575 1576 1576 1576 1576 1576 1577 1577 1577 1577 1577 1578 1578 1578 1578 1579 1579 1579 1580 1580 1581 1581 1582 1582 1583 1584 1584 1585 1586 1587 1587 1588 1589 1590 1590
1570 1570 1571 1571 1572 1573 1573 1574 1574 1575 1575 1575 1575 1575 1575 1575 1575 1576 1576 1576 1576 1577 1577 1577 1578 1578 1578 1578 1579 1579 1580 1580 1581 1581 1582 1583 1583 1584 1585 1586 1587 1587 1588
1569 1570 1570 1571 1571 1572 1572 1573 1573 1573 1574 1574 1574 1574 1573 1573 1573 1573 1574 1574 1574 1575 1575 1575 1575 1576 1576 1576 1576 1577 1577 1578 1578 1578 1579 1580 1580 1581 1582 1583 1584 1584 1585
1568 1568 1569 1569 1570 1570 1570 1571 1571 1572 1572 1572 1572 1572 1571 1571 1571 1571 1571 1571 1572 1572 1572 1573 1573 1573 1573 1573 1574 1574 1574 1575 1575 1576 1576 1576 1577 1578 1578 1579 1580 1581 1582
1567 1567 1567 1568 1568 1568 1569 1569 1569 1569 1570 1570 1570 1570 1569 1569 1568 1568 1568 1568 1569 1569 1570 1570 1570 1570 1571 1571 1571 1571 1571 1572 1572 1572 1572 1573 1573 1574 1575 1575 1576 1577 1578
1565 1565 1566 1566 1566 1567 1566 1567 1567 1567 1567 1568 1568 1568 1567 1566 1566 1566 1566 1566 1566 1567 1567 1567 1567 1568 1568 1568 1568 1568 1568 1568 1568 1569 1569 1569 1569 1570 1571 1571 1572 1573 1573
1564 1564 1564 1564 1564 1564 1564 1564 1564 1564 1564 1564 1565 1565 1566 1565 1565 1563 1564 1564 1564 1564 1564 1564 1564 1564 1564 1564 1564 1564 1564 1564 1565 1565 1565 1565 1566 1566 1567 1567 1568 1568 1569
1562 1562 1562 1562 1561 1561 1561 1561 1561 1561 1561 1561 1561 1562 1562 1562 1562 1562 1561 1561 1561 1561 1561 1561 1561 1561 1561 1561 1561 1561 1561 1560 1561 1561 1561 1561 1561 1561 1562 1562 1563 1563 1564
1560 1559 1559 1559 1559 1558 1558 1558 1558 1558 1558 1558 1558 1558 1558 1558 1558 1559 1558 1557 1558 1558 1558 1558 1558 1558 1558 1558 1557 1557 1557 1557 1557 1557 1557 1556 1556 1556 1557 1557 1557 1558 1559
1557 1557 1556 1556 1556 1555 1555 1555 1555 1555 1555 1554 1554 1553 1554 1555 1555 1555 1555 1554 1554 1554 1555 1555 1555 1555 1555 1555 1554 1554 1554 1554 1553 1553 1553 1552 1552 1552 1552 1552 1552 1552 1553
1554 1554 1554 1553 1553 1552 1552 1552 1551 1551 1551 1551 1550 1549 1550 1551 1552 1552 1552 1551 1551 1551 1551 1552 1552 1552 1552 1552 1552 1551 1551 1550 1550 1549 1549 1548 1548 1547 1547 1546 1546 1547 1547
1552 1552 1552 1551 1550 1550 1549 1549 1548 1548 1548 1548 1547 1547 1548 1548 1548 1549 1548 1549 1549 1548 1548 1549 1550 1550 1550 1550 1549 1549 1548 1548 1547 1546 1545 1544 1544 1543 1543 1542 1542 1542 1542
1550 1550 1549 1549 1548 1547 1546 1546 1545 1545 1545 1545 1545 1545 1545 1545 1545 1546 1545 1545 1546 1546 1546 1546 1547 1548 1547 1547 1547 1546 1546 1545 1544 1543 1542 1541 1540 1540 1539 1538 1538 1538 1538
1548 1548 1547 1547 1546 1545 1544 1544 1543 1543 1543 1543 1543 1543 1543 1543 1543 1543 1543 1543 1543 1544 1543 1544 1545 1546 1545 1545 1545 1544 1544 1543 1542 1541 1540 1539 1538 1537 1536 1535 1535 1534 1534
1546 1546 1545 1545 1544 1544 1543 1543 1542 1542 1541 1541 1541 1541 1541 1541 1541 1541 1541 1541 1542 1542 1542 1542 1543 1544 1544 1544 1543 1543 1542 1542 1541 1540 1539 1538 1537 1536 1534 1533 1532 1532 1531
1545 1545 1544 1544 1543 1543 1543 1542 1541 1541 1540 1539 1539 1539 1539 1540 1539 1540 1540 1540 1540 1541 1541 1541 1541 1542 1542 1542 1542 1541 1541 1540 1540 1539 1538 1537 1536 1535 1533 1532 1531 1530 1530
1544 1544 1544 1543 1543 1543 1542 1542 1541 1540 1539 1539 1539 1538 1538 1538 1538 1538 1539 1539 1539 1539 1540 1540 1540 1541 1541 1541 1541 1540 1540 1540 1539 1538 1538 1536 1536 1534 1533 1532 1530 1529 1528
1543 1543 1543 1543 1543 1543 1543 1542 1541 1540 1540 1539 1538 1538 1538 1538 1538 1538 1538 1538 1539 1539 1539 1539 1539 1540 1540 1539 1539 1539 1539 1539 1538 1538 1537 1536 1535 1534 1533 1531 1530 1529 1528
1543 1543 1544 1544 1544 1543 1543 1543 1542 1541 1540 1539 1539 1538 1538 1538 1539 1539 1538 1539 1539 1538 1538 1538 1538 1538 1539 1539 1539 1539 1539 1538 1537 1538 1537 1536 1535 1534 1533 1532 1531 1529 1528
1543 1544 1544 1544 1544 1544 1544 1544 1543 1542 1541 1540 1540 1539 1539 1539 1540 1540 1539 1539 1539 1538 1539 1538 1538 1538 1538 1539 1539 1538 1538 1537 1537 1537 1537 1536 1535 1534 1533 1532 1531 1530 1528
1544 1544 1544 1545 1545 1545 1545 1545 1544 1543 1542 1541 1541 1540 1540 1540 1541 1541 1540 1540 1539 1539 1539 1538 1538 1538 1539 1539 1538 1538 1538 1538 1537 1537 1536 1535 1535 1534 1533 1532 1531 1530 1529
1544 1544 1545 1545 1546 1546 1546 1546 1545 1544 1543 1543 1543 1543 1542 1542 1542 1542 1541 1540 1540 1540 1540 1539 1539 1539 1539 1539 1539 1538 1538 1537 1536 1536 1536 1535 1534 1533 1533 1532 1531 1530 1528
1544 1545 1545 1546 1546 1546 1547 1546 1546 1545 1545 1544 1544 1544 1544 1544 1544 1544 1543 1542 1541 1542 1541 1541 1541 1540 1540 1539 1539 1538 1538 1537 1536 1536 1536 1535 1534 1533 1532 1532 1531 1530 1529